Location: Haskovo
(41.9227°N, 25.5707°E)
Time: 14:08:33
(UTC+03:00)

ISS - Visible Passes

Search period start: 01 April 2023 00:00
Search period end: 11 April 2023 00:00
Orbit: 414 x 423 km, 51.6° (Epoch: 01 April)

Date Brightness Start Highest point End Pass type
(mag) Time Alt. Az. Time Alt. Az. Time Alt. Az.
01 Apr -3.8 20:48:33 10° WNW 20:51:54 83° SSW 20:53:42 25° SE visible
02 Apr -1.5 21:38:19 10° W 21:40:32 17° SW 21:41:03 16° SW visible
03 Apr -2.1 20:49:55 10° WNW 20:52:50 28° SW 20:55:30 11° SSE visible
